Location: Passau
(48.5830°N, 13.4830°E)
Time: 20:43:52
(UTC+02:00)

S-56A Canister/Altair - Pass Details

Date: 20 May 2024
Orbit: 637 x 2489 km, 38.9° (Epoch: 15 June)

Event Time Altitude Azimuth Distance (km) Brightness Sun altitude
Rises 06:13:59 0° 199° (SSW) 5,887 11.6 7.3°
Reaches altitude 10° 06:19:42 10° 184° (S) 4,613 11.3 8.1°
Maximum altitude 06:27:05 18° 147° (SSE) 3,507 11.1 9.3°
Drops below altitude 10° 06:33:08 10° 109° (ESE) 3,683 12.0 10.2°
Sets 06:36:56 0° 91° (E) 4,340 12.9 10.8°
